{"data":{"norad_id":59699,"epoch":"2026-05-24T22:19:03.760896Z","epoch_age_seconds":84130,"freshness":"FRESH","line1":"1 59699U 24086T   26144.92990464  .00016297  00000+0  59977-3 0  9992","line2":"2 59699  43.0017 349.2024 0001443 269.1223  90.9463 15.27616995115779","mean_motion":15.27616995,"eccentricity":0.0001443,"inclination_deg":43.0017,"raan_deg":349.2024,"arg_perigee_deg":269.1223,"mean_anomaly_deg":90.9463,"bstar":0.00059977,"rev_number":11577,"period_min":94.26446581265,"perigee_km":481.94826876742,"apogee_km":483.92837510534,"semimajor_km":6861.0753219364,"source":"CELESTRAK","updated_at":"2026-05-25T13:38:19.043636Z"}}